Time,TemperatureF,DewpointF,PressureIn,WindDirection,WindDirectionDegrees,WindSpeedMPH,WindSpeedGustMPH,Humidity,HourlyPrecipIn,Conditions,Clouds,dailyrainin,SolarRadiationWatts/m^2,SoftwareType,DateUTC
2013-04-04 00:24:00,26.9,16.0,30.15,South,188,0.0,3.0,63,0.00,,,0.00,0,weatherlink.com 1.10,2013-04-04 04:24:00,
2013-04-04 00:39:00,26.8,16.0,30.15,ESE,121,2.0,7.0,64,0.00,,,0.00,0,weatherlink.com 1.10,2013-04-04 04:39:00,
2013-04-04 00:54:00,26.3,15.0,30.16,SE,136,0.0,3.0,62,0.00,,,0.00,0,weatherlink.com 1.10,2013-04-04 04:54:00,
2013-04-04 01:09:00,26.6,14.0,30.15,SE,127,3.0,7.0,60,0.00,,,0.00,0,weatherlink.com 1.10,2013-04-04 05:09:00,
2013-04-04 01:24:00,26.0,14.0,30.16,ESE,122,1.0,3.0,62,0.00,,,0.00,0,weatherlink.com 1.10,2013-04-04 05:24:00,
2013-04-04 01:54:00,26.2,12.0,30.15,ENE,65,2.0,7.0,56,0.00,,,0.00,0,weatherlink.com 1.10,2013-04-04 05:54:00,
2013-04-04 02:09:00,26.8,12.0,30.15,East,90,1.0,5.0,53,0.00,,,0.00,0,weatherlink.com 1.10,2013-04-04 06:09:00,
2013-04-04 02:24:00,26.0,12.0,30.16,East,89,2.0,4.0,55,0.00,,,0.00,0,weatherlink.com 1.10,2013-04-04 06:24:00,
2013-04-04 02:39:00,25.7,12.0,30.16,South,173,1.0,6.0,56,0.00,,,0.00,0,weatherlink.com 1.10,2013-04-04 06:39:00,
2013-04-04 02:54:00,25.6,11.0,30.16,ESE,111,0.0,1.0,55,0.00,,,0.00,0,weatherlink.com 1.10,2013-04-04 06:54:00,
2013-04-04 03:09:00,24.9,11.0,30.16,ESE,113,0.0,3.0,55,0.00,,,0.00,0,weatherlink.com 1.10,2013-04-04 07:09:00,
2013-04-04 03:24:00,24.4,12.0,30.15,East,100,0.0,3.0,59,0.00,,,0.00,0,weatherlink.com 1.10,2013-04-04 07:24:00,
2013-04-04 03:39:00,24.1,10.0,30.16,East,100,0.0,1.0,56,0.00,,,0.00,0,weatherlink.com 1.10,2013-04-04 07:39:00,
2013-04-04 03:54:00,23.5,11.0,30.16,WSW,258,0.0,2.0,60,0.00,,,0.00,0,weatherlink.com 1.10,2013-04-04 07:54:00,
2013-04-04 04:09:00,23.6,11.0,30.17,South,191,0.0,2.0,58,0.00,,,0.00,0,weatherlink.com 1.10,2013-04-04 08:09:00,
2013-04-04 04:24:00,24.0,10.0,30.16,South,191,0.0,1.0,56,0.00,,,0.00,0,weatherlink.com 1.10,2013-04-04 08:24:00,
2013-04-04 04:39:00,23.8,11.0,30.17,South,191,0.0,2.0,58,0.00,,,0.00,0,weatherlink.com 1.10,2013-04-04 08:39:00,
2013-04-04 05:09:00,22.7,9.0,30.17,South,191,1.0,1.0,57,0.00,,,0.00,0,weatherlink.com 1.10,2013-04-04 09:09:00,
2013-04-04 05:24:00,22.4,11.0,30.17,SSW,206,0.0,1.0,63,0.00,,,0.00,0,weatherlink.com 1.10,2013-04-04 09:24:00,
2013-04-04 05:39:00,21.6,11.0,30.18,WSW,248,0.0,0.0,63,0.00,,,0.00,0,weatherlink.com 1.10,2013-04-04 09:39:00,
2013-04-04 05:54:00,21.2,10.0,30.19,West,261,0.0,1.0,63,0.00,,,0.00,0,weatherlink.com 1.10,2013-04-04 09:54:00,
2013-04-04 06:09:00,21.8,11.0,30.19,South,190,0.0,3.0,63,0.00,,,0.00,0,weatherlink.com 1.10,2013-04-04 10:09:00,
2013-04-04 06:25:00,22.4,10.0,30.19,SSW,192,0.0,1.0,60,0.00,,,0.00,0,weatherlink.com 1.10,2013-04-04 10:25:00,
2013-04-04 06:40:00,22.3,11.0,30.19,SSW,192,0.0,1.0,61,0.00,,,0.00,9,weatherlink.com 1.10,2013-04-04 10:40:00,
2013-04-04 06:55:00,22.4,12.0,30.20,West,269,0.0,2.0,65,0.00,,,0.00,26,weatherlink.com 1.10,2013-04-04 10:55:00,
2013-04-04 07:10:00,24.9,13.0,30.21,WNW,286,0.0,3.0,60,0.00,,,0.00,33,weatherlink.com 1.10,2013-04-04 11:10:00,
2013-04-04 07:25:00,27.2,13.0,30.21,NW,308,0.0,5.0,55,0.00,,,0.00,40,weatherlink.com 1.10,2013-04-04 11:25:00,
2013-04-04 07:40:00,29.0,13.0,30.21,WSW,254,2.0,4.0,52,0.00,,,0.00,46,weatherlink.com 1.10,2013-04-04 11:40:00,
2013-04-04 08:10:00,30.3,14.0,30.22,WNW,292,2.0,5.0,51,0.00,,,0.00,51,weatherlink.com 1.10,2013-04-04 12:10:00,
2013-04-04 08:25:00,31.0,14.0,30.22,SE,127,2.0,4.0,50,0.00,,,0.00,53,weatherlink.com 1.10,2013-04-04 12:25:00,
2013-04-04 08:40:00,32.0,14.0,30.21,SE,134,1.0,6.0,48,0.00,,,0.00,56,weatherlink.com 1.10,2013-04-04 12:40:00,
2013-04-04 08:55:00,32.9,13.0,30.21,WSW,255,2.0,7.0,44,0.00,,,0.00,56,weatherlink.com 1.10,2013-04-04 12:55:00,
2013-04-04 09:10:00,33.6,15.0,30.21,SW,217,0.0,7.0,46,0.00,,,0.00,58,weatherlink.com 1.10,2013-04-04 13:10:00,
2013-04-04 09:25:00,34.4,14.0,30.21,South,171,2.0,4.0,43,0.00,,,0.00,60,weatherlink.com 1.10,2013-04-04 13:25:00,
2013-04-04 09:40:00,35.6,14.0,30.20,SW,217,1.0,4.0,41,0.00,,,0.00,62,weatherlink.com 1.10,2013-04-04 13:40:00,
2013-04-04 09:55:00,36.4,12.0,30.20,West,261,2.0,4.0,37,0.00,,,0.00,290,weatherlink.com 1.10,2013-04-04 13:55:00,
2013-04-04 10:10:00,37.3,13.0,30.19,SSE,161,0.0,6.0,37,0.00,,,0.00,380,weatherlink.com 1.10,2013-04-04 14:10:00,
2013-04-04 10:25:00,37.5,13.0,30.18,ESE,105,2.0,5.0,36,0.00,,,0.00,424,weatherlink.com 1.10,2013-04-04 14:25:00,
2013-04-04 10:40:00,37.7,12.0,30.17,SE,133,2.0,9.0,34,0.00,,,0.00,464,weatherlink.com 1.10,2013-04-04 14:40:00,
2013-04-04 10:55:00,38.3,12.0,30.17,SE,140,3.0,7.0,34,0.00,,,0.00,504,weatherlink.com 1.10,2013-04-04 14:55:00,
2013-04-04 11:11:00,38.6,14.0,30.16,NNE,28,2.0,6.0,36,0.00,,,0.00,545,weatherlink.com 1.10,2013-04-04 15:11:00,
2013-04-04 11:26:00,39.6,11.0,30.15,West,259,1.0,7.0,31,0.00,,,0.00,585,weatherlink.com 1.10,2013-04-04 15:26:00,
2013-04-04 11:41:00,40.3,12.0,30.14,NNE,20,2.0,8.0,31,0.00,,,0.00,619,weatherlink.com 1.10,2013-04-04 15:41:00,
2013-04-04 11:56:00,40.7,11.0,30.13,NW,308,0.0,8.0,30,0.00,,,0.00,664,weatherlink.com 1.10,2013-04-04 15:56:00,
2013-04-04 12:11:00,42.5,10.0,30.12,East,101,0.0,4.0,26,0.00,,,0.00,698,weatherlink.com 1.10,2013-04-04 16:11:00,
2013-04-04 12:26:00,42.7,11.0,30.11,WSW,249,6.0,6.0,27,0.00,,,0.00,705,weatherlink.com 1.10,2013-04-04 16:26:00,
2013-04-04 12:41:00,43.5,10.0,30.10,West,279,2.0,5.0,25,0.00,,,0.00,728,weatherlink.com 1.10,2013-04-04 16:41:00,
2013-04-04 12:56:00,43.4,10.0,30.09,ESE,123,0.0,9.0,26,0.00,,,0.00,749,weatherlink.com 1.10,2013-04-04 16:56:00,
2013-04-04 13:11:00,43.3,13.0,30.08,SW,226,1.0,8.0,29,0.00,,,0.00,766,weatherlink.com 1.10,2013-04-04 17:11:00,
2013-04-04 13:26:00,44.5,12.0,30.08,ESE,117,0.0,7.0,27,0.00,,,0.00,780,weatherlink.com 1.10,2013-04-04 17:26:00,
2013-04-04 13:41:00,45.4,14.0,30.07,SW,219,3.0,7.0,28,0.00,,,0.00,795,weatherlink.com 1.10,2013-04-04 17:41:00,
2013-04-04 13:56:00,44.8,12.0,30.07,WSW,250,2.0,13.0,26,0.00,,,0.00,802,weatherlink.com 1.10,2013-04-04 17:56:00,
2013-04-04 14:11:00,45.9,13.0,30.06,SSE,155,1.0,9.0,26,0.00,,,0.00,809,weatherlink.com 1.10,2013-04-04 18:11:00,
2013-04-04 14:26:00,46.1,13.0,30.05,East,79,0.0,6.0,26,0.00,,,0.00,807,weatherlink.com 1.10,2013-04-04 18:26:00,
2013-04-04 14:41:00,46.3,13.0,30.04,SE,138,4.0,9.0,26,0.00,,,0.00,803,weatherlink.com 1.10,2013-04-04 18:41:00,
2013-04-04 14:56:00,46.4,13.0,30.03,South,174,4.0,12.0,26,0.00,,,0.00,796,weatherlink.com 1.10,2013-04-04 18:56:00,
2013-04-04 15:12:00,47.2,13.0,30.02,SSE,160,0.0,10.0,25,0.00,,,0.00,705,weatherlink.com 1.10,2013-04-04 19:12:00,
2013-04-04 15:26:00,46.9,14.0,30.01,South,173,0.0,10.0,27,0.00,,,0.00,548,weatherlink.com 1.10,2013-04-04 19:26:00,
2013-04-04 15:42:00,47.0,14.0,30.00,ESE,119,2.0,9.0,27,0.00,,,0.00,606,weatherlink.com 1.10,2013-04-04 19:42:00,
2013-04-04 16:12:00,47.0,14.0,29.98,WSW,243,2.0,8.0,27,0.00,,,0.00,278,weatherlink.com 1.10,2013-04-04 20:12:00,
2013-04-04 16:27:00,47.3,16.0,29.98,SE,136,3.0,9.0,28,0.00,,,0.00,545,weatherlink.com 1.10,2013-04-04 20:27:00,
2013-04-04 16:42:00,47.5,16.0,29.97,SSE,161,0.0,11.0,28,0.00,,,0.00,311,weatherlink.com 1.10,2013-04-04 20:42:00,
2013-04-04 16:57:00,47.4,16.0,29.96,SW,221,1.0,8.0,28,0.00,,,0.00,116,weatherlink.com 1.10,2013-04-04 20:57:00,
2013-04-04 17:12:00,47.3,17.0,29.95,East,82,2.0,4.0,30,0.00,,,0.00,199,weatherlink.com 1.10,2013-04-04 21:12:00,
2013-04-04 17:27:00,46.9,16.0,29.95,SSW,197,0.0,8.0,29,0.00,,,0.00,258,weatherlink.com 1.10,2013-04-04 21:27:00,
2013-04-04 17:42:00,46.5,19.0,29.94,ESE,111,3.0,8.0,33,0.00,,,0.00,40,weatherlink.com 1.10,2013-04-04 21:42:00,
2013-04-04 17:57:00,46.5,16.0,29.95,ESE,117,2.0,6.0,29,0.00,,,0.00,91,weatherlink.com 1.10,2013-04-04 21:57:00,
2013-04-04 18:12:00,45.8,17.0,29.94,ESE,112,3.0,5.0,32,0.00,,,0.00,33,weatherlink.com 1.10,2013-04-04 22:12:00,
2013-04-04 18:27:00,45.7,18.0,29.94,SE,128,0.0,5.0,33,0.00,,,0.00,30,weatherlink.com 1.10,2013-04-04 22:27:00,
2013-04-04 18:42:00,45.1,17.0,29.94,SSE,147,2.0,7.0,33,0.00,,,0.00,21,weatherlink.com 1.10,2013-04-04 22:42:00,
2013-04-04 18:57:00,44.0,18.0,29.95,East,92,2.0,5.0,36,0.00,,,0.00,16,weatherlink.com 1.10,2013-04-04 22:57:00,
2013-04-04 19:12:00,43.5,19.0,29.95,South,171,2.0,9.0,37,0.00,,,0.00,9,weatherlink.com 1.10,2013-04-04 23:12:00,
2013-04-04 19:27:00,43.1,19.0,29.95,SSE,167,0.0,8.0,38,0.00,,,0.00,0,weatherlink.com 1.10,2013-04-04 23:27:00,
2013-04-04 19:42:00,42.1,19.0,29.94,ENE,75,0.0,3.0,40,0.00,,,0.00,0,weatherlink.com 1.10,2013-04-04 23:42:00,
2013-04-04 19:57:00,41.1,19.0,29.94,East,95,0.0,5.0,41,0.00,,,0.00,0,weatherlink.com 1.10,2013-04-04 23:57:00,
2013-04-04 20:12:00,40.1,20.0,29.94,ESE,117,0.0,3.0,44,0.00,,,0.00,0,weatherlink.com 1.10,2013-04-05 00:12:00,
2013-04-04 20:27:00,39.7,19.0,29.94,ESE,111,0.0,2.0,44,0.00,,,0.00,0,weatherlink.com 1.10,2013-04-05 00:27:00,
2013-04-04 20:42:00,39.1,20.0,29.94,SE,128,2.0,4.0,46,0.00,,,0.00,0,weatherlink.com 1.10,2013-04-05 00:42:00,
2013-04-04 20:57:00,38.6,19.0,29.95,ESE,105,0.0,2.0,46,0.00,,,0.00,0,weatherlink.com 1.10,2013-04-05 00:57:00,
2013-04-04 21:12:00,38.2,19.0,29.95,SSE,150,1.0,3.0,47,0.00,,,0.00,0,weatherlink.com 1.10,2013-04-05 01:12:00,
2013-04-04 21:27:00,38.1,19.0,29.95,ESE,113,0.0,4.0,47,0.00,,,0.00,0,weatherlink.com 1.10,2013-04-05 01:27:00,
2013-04-04 21:42:00,38.0,19.0,29.94,ESE,103,0.0,3.0,47,0.00,,,0.00,0,weatherlink.com 1.10,2013-04-05 01:42:00,
2013-04-04 21:57:00,37.8,19.0,29.94,East,85,0.0,2.0,47,0.00,,,0.00,0,weatherlink.com 1.10,2013-04-05 01:57:00,
2013-04-04 22:12:00,37.6,18.0,29.93,ESE,119,0.0,2.0,46,0.00,,,0.00,0,weatherlink.com 1.10,2013-04-05 02:12:00,
2013-04-04 22:27:00,37.3,19.0,29.93,ESE,102,1.0,3.0,47,0.00,,,0.00,0,weatherlink.com 1.10,2013-04-05 02:27:00,
2013-04-04 22:42:00,37.3,19.0,29.93,ESE,102,0.0,3.0,48,0.00,,,0.00,0,weatherlink.com 1.10,2013-04-05 02:42:00,
2013-04-04 22:57:00,36.9,19.0,29.92,SE,132,0.0,2.0,48,0.00,,,0.00,0,weatherlink.com 1.10,2013-04-05 02:57:00,
2013-04-04 23:12:00,36.0,19.0,29.91,ENE,59,0.0,0.0,50,0.00,,,0.00,0,weatherlink.com 1.10,2013-04-05 03:12:00,
2013-04-04 23:27:00,35.6,19.0,29.90,ENE,59,0.0,0.0,51,0.00,,,0.00,0,weatherlink.com 1.10,2013-04-05 03:27:00,
2013-04-04 23:57:00,35.1,19.0,29.88,SW,215,0.0,2.0,53,0.00,,,0.00,0,weatherlink.com 1.10,2013-04-05 03:57:00,